When you browse on this site, cookies collect data to enhance your experience and personalize the content and advertising you see.
Visit our Privacy Policy to learn more. By continuing to use the site, you agree to this use of cookies and data.
  • în România
  • Lista ţărilor
  • Pe 7 zile
  • Temperatura apei
  • Meteo pe hartă
  • Widget-uri
  • user-avatar
    Intrare

    Meteo pe oră la Beiuş

    Astăzi, 15 Noiembrie, Vineri

    Timp Temperatura Precipitaţii Vânt Presiune Umiditate
    00:00 +13°C° 0 mm 0 m/s 740 mmHg 85%
    01:00 +13°C° 0 mm 0 m/s 740 mmHg 86%
    02:00 +13°C° 0.1 mm 0 m/s 740 mmHg 88%
    03:00 +12°C° 0.1 mm 0 m/s 740 mmHg 89%
    04:00 +12°C° 0.1 mm 0 m/s 740 mmHg 90%
    05:00 +12°C° 0.1 mm 0 m/s 740 mmHg 91%
    06:00 +12°C° 0.1 mm 0 m/s 741 mmHg 91%
    07:00 +11°C° 0 mm 0 m/s 741 mmHg 93%
    08:00 +14°C° 0 mm 1 m/s 741 mmHg 87%
    09:00 +15°C° 0 mm 1 m/s 742 mmHg 80%
    10:00 +16°C° 0 mm 1 m/s 742 mmHg 73%
    11:00 +18°C° 0 mm 1 m/s 742 mmHg 69%
    12:00 +19°C° 0 mm 1 m/s 742 mmHg 65%
    13:00 +19°C° 0 mm 1 m/s 742 mmHg 61%
    14:00 +18°C° 0 mm 1 m/s 742 mmHg 67%
    15:00 +16°C° 0 mm 1 m/s 742 mmHg 72%
    16:00 +15°C° 0 mm 1 m/s 742 mmHg 78%
    17:00 +14°C° 0 mm 1 m/s 742 mmHg 78%
    18:00 +14°C° 0 mm 2 m/s 743 mmHg 79%
    19:00 +13°C° 0 mm 2 m/s 743 mmHg 80%
    20:00 +13°C° 0 mm 2 m/s 743 mmHg 79%
    21:00 +13°C° 0 mm 2 m/s 743 mmHg 77%
    22:00 +13°C° 0 mm 2 m/s 743 mmHg 76%
    23:00 +13°C° 0 mm 2 m/s 744 mmHg 75%

    Mâine, 16 Noiembrie, Sâmbătă

    Timp Temperatura Precipitaţii Vânt Presiune Umiditate
    00:00 +13°C° 0 mm 2 m/s 744 mmHg 73%
    01:00 +13°C° 0 mm 2 m/s 744 mmHg 72%
    02:00 +13°C° 0 mm 2 m/s 744 mmHg 71%
    03:00 +13°C° 0 mm 2 m/s 744 mmHg 70%
    04:00 +13°C° 0 mm 2 m/s 744 mmHg 69%
    05:00 +13°C° 0 mm 2 m/s 744 mmHg 69%
    06:00 +13°C° 0 mm 2 m/s 745 mmHg 68%
    07:00 +12°C° 0 mm 3 m/s 745 mmHg 67%
    08:00 +15°C° 0 mm 2 m/s 745 mmHg 61%
    09:00 +17°C° 0 mm 2 m/s 745 mmHg 55%
    10:00 +19°C° 0 mm 2 m/s 746 mmHg 50%
    11:00 +20°C° 0 mm 2 m/s 745 mmHg 47%
    12:00 +20°C° 0 mm 2 m/s 745 mmHg 45%
    13:00 +21°C° 0 mm 2 m/s 745 mmHg 43%
    14:00 +19°C° 0 mm 2 m/s 745 mmHg 49%
    15:00 +17°C° 0 mm 2 m/s 745 mmHg 55%
    16:00 +16°C° 0 mm 1 m/s 745 mmHg 61%
    17:00 +15°C° 0 mm 1 m/s 745 mmHg 61%
    18:00 +15°C° 0 mm 1 m/s 745 mmHg 60%
    19:00 +14°C° 0 mm 1 m/s 745 mmHg 59%
    20:00 +14°C° 0 mm 1 m/s 745 mmHg 58%
    21:00 +14°C° 0 mm 1 m/s 745 mmHg 57%
    22:00 +14°C° 0 mm 1 m/s 745 mmHg 56%
    23:00 +13°C° 0 mm 1 m/s 745 mmHg 56%

    Poimâine, 17 Noiembrie, Duminică

    Timp Temperatura Precipitaţii Vânt Presiune Umiditate
    00:00 +13°C° 0 mm 1 m/s 745 mmHg 56%
    01:00 +13°C° 0 mm 1 m/s 745 mmHg 56%
    02:00 +13°C° 0 mm 1 m/s 745 mmHg 55%
    03:00 +13°C° 0 mm 1 m/s 744 mmHg 54%
    04:00 +13°C° 0 mm 1 m/s 744 mmHg 53%
    05:00 +13°C° 0 mm 1 m/s 744 mmHg 52%
    06:00 +13°C° 0 mm 1 m/s 744 mmHg 52%
    07:00 +13°C° 0 mm 1 m/s 744 mmHg 51%
    08:00 +15°C° 0 mm 1 m/s 744 mmHg 48%
    09:00 +16°C° 0 mm 1 m/s 744 mmHg 46%
    10:00 +17°C° 0 mm 0 m/s 744 mmHg 44%
    11:00 +17°C° 0 mm 0 m/s 744 mmHg 43%
    12:00 +20°C° 0 mm 1 m/s 743 mmHg 43%
    13:00 +20°C° 0 mm 1 m/s 743 mmHg 43%
    14:00 +19°C° 0 mm 1 m/s 743 mmHg 47%
    15:00 +18°C° 0 mm 1 m/s 742 mmHg 52%
    16:00 +15°C° 0 mm 1 m/s 742 mmHg 57%
    17:00 +15°C° 0 mm 1 m/s 742 mmHg 58%
    18:00 +14°C° 0 mm 1 m/s 742 mmHg 59%
    19:00 +14°C° 0 mm 1 m/s 742 mmHg 60%
    20:00 +14°C° 0 mm 1 m/s 742 mmHg 61%
    21:00 +14°C° 0 mm 1 m/s 742 mmHg 62%
    22:00 +14°C° 0 mm 1 m/s 742 mmHg 63%
    23:00 +14°C° 0 mm 1 m/s 741 mmHg 62%

    18 Noiembrie, Luni

    Timp Temperatura Precipitaţii Vânt Presiune Umiditate
    00:00 +14°C° 0 mm 1 m/s 741 mmHg 62%
    01:00 +14°C° 0 mm 1 m/s 740 mmHg 62%
    02:00 +14°C° 0 mm 1 m/s 740 mmHg 61%
    03:00 +13°C° 0 mm 1 m/s 740 mmHg 61%
    04:00 +13°C° 0 mm 1 m/s 740 mmHg 60%
    05:00 +13°C° 0 mm 1 m/s 740 mmHg 61%
    06:00 +13°C° 0 mm 2 m/s 740 mmHg 62%
    07:00 +13°C° 0 mm 2 m/s 740 mmHg 63%
    08:00 +14°C° 0 mm 2 m/s 741 mmHg 60%
    09:00 +16°C° 0 mm 3 m/s 741 mmHg 57%
    10:00 +17°C° 0 mm 3 m/s 742 mmHg 54%
    11:00 +18°C° 0 mm 4 m/s 742 mmHg 54%
    12:00 +18°C° 0 mm 4 m/s 743 mmHg 54%
    13:00 +18°C° 0 mm 4 m/s 743 mmHg 54%
    14:00 +17°C° 0.1 mm 3 m/s 743 mmHg 61%
    15:00 +15°C° 0.1 mm 2 m/s 743 mmHg 69%
    16:00 +14°C° 0.1 mm 1 m/s 743 mmHg 76%
    17:00 +13°C° 0.1 mm 1 m/s 744 mmHg 78%
    18:00 +13°C° 0.1 mm 2 m/s 744 mmHg 79%
    19:00 +12°C° 0.1 mm 2 m/s 745 mmHg 81%
    20:00 +12°C° 0 mm 2 m/s 745 mmHg 80%
    21:00 +12°C° 0 mm 2 m/s 745 mmHg 80%
    22:00 +12°C° 0 mm 2 m/s 745 mmHg 80%
    23:00 +12°C° 0 mm 2 m/s 745 mmHg 78%

    19 Noiembrie, Marţi

    Timp Temperatura Precipitaţii Vânt Presiune Umiditate
    00:00 +12°C° 0 mm 2 m/s 745 mmHg 76%
    01:00 +12°C° 0 mm 2 m/s 746 mmHg 74%
    02:00 +12°C° 0 mm 2 m/s 745 mmHg 73%
    03:00 +12°C° 0 mm 2 m/s 745 mmHg 72%
    04:00 +12°C° 0 mm 2 m/s 745 mmHg 72%
    05:00 +12°C° 0 mm 2 m/s 745 mmHg 70%
    06:00 +12°C° 0 mm 1 m/s 745 mmHg 68%
    07:00 +12°C° 0 mm 1 m/s 745 mmHg 66%
    08:00 +13°C° 0 mm 1 m/s 745 mmHg 62%
    09:00 +15°C° 0 mm 1 m/s 745 mmHg 59%
    10:00 +16°C° 0 mm 1 m/s 745 mmHg 55%
    11:00 +18°C° 0 mm 1 m/s 745 mmHg 52%
    12:00 +18°C° 0 mm 1 m/s 744 mmHg 50%
    13:00 +19°C° 0 mm 1 m/s 744 mmHg 48%
    14:00 +18°C° 0 mm 1 m/s 744 mmHg 54%
    15:00 +15°C° 0 mm 1 m/s 743 mmHg 60%
    16:00 +14°C° 0 mm 1 m/s 743 mmHg 66%
    17:00 +13°C° 0 mm 1 m/s 743 mmHg 67%
    18:00 +13°C° 0 mm 1 m/s 744 mmHg 67%
    19:00 +13°C° 0 mm 2 m/s 744 mmHg 68%
    20:00 +13°C° 0 mm 2 m/s 744 mmHg 68%
    21:00 +13°C° 0 mm 2 m/s 744 mmHg 67%
    22:00 +13°C° 0 mm 2 m/s 744 mmHg 67%
    23:00 +12°C° 0 mm 2 m/s 743 mmHg 67%

    20 Noiembrie, Miercuri

    Timp Temperatura Precipitaţii Vânt Presiune Umiditate
    00:00 +12°C° 0 mm 2 m/s 743 mmHg 67%
    01:00 +12°C° 0 mm 1 m/s 743 mmHg 67%
    02:00 +12°C° 0 mm 1 m/s 743 mmHg 66%
    03:00 +12°C° 0 mm 1 m/s 742 mmHg 66%
    04:00 +12°C° 0 mm 1 m/s 742 mmHg 65%
    05:00 +12°C° 0 mm 1 m/s 742 mmHg 65%
    06:00 +12°C° 0 mm 1 m/s 742 mmHg 65%
    07:00 +13°C° 0 mm 1 m/s 742 mmHg 65%
    08:00 +13°C° 0.1 mm 1 m/s 742 mmHg 69%
    09:00 +13°C° 0.1 mm 1 m/s 742 mmHg 72%
    10:00 +13°C° 0.1 mm 1 m/s 742 mmHg 76%
    11:00 +13°C° 0.4 mm 1 m/s 742 mmHg 81%
    12:00 +12°C° 0.4 mm 1 m/s 742 mmHg 86%
    13:00 +12°C° 0.4 mm 1 m/s 742 mmHg 91%
    14:00 +12°C° 1.1 mm 1 m/s 742 mmHg 92%
    15:00 +12°C° 1.1 mm 1 m/s 743 mmHg 94%
    16:00 +11°C° 1.1 mm 1 m/s 743 mmHg 95%
    17:00 +11°C° 0.2 mm 1 m/s 743 mmHg 94%
    18:00 +10°C° 0.2 mm 2 m/s 744 mmHg 94%
    19:00 +10°C° 0.2 mm 2 m/s 744 mmHg 93%
    20:00 +10°C° 0.1 mm 2 m/s 744 mmHg 94%
    21:00 +10°C° 0.1 mm 2 m/s 745 mmHg 95%
    22:00 +9°C° 0.1 mm 2 m/s 745 mmHg 96%
    23:00 +9°C° 0 mm 2 m/s 745 mmHg 95%
    Arată mai mult